TimeEST,TemperatureF,Dew PointF,Humidity,Sea Level PressureIn,VisibilityMPH,Wind Direction,Wind SpeedMPH,Gust SpeedMPH,PrecipitationIn,Events,Conditions,WindDirDegrees,DateUTC
12:53 AM,28.0,23.0,81,30.04,10.0,Calm,Calm,-,N/A,,Clear,0,2013-02-25 05:53:00
1:53 AM,27.0,21.9,81,30.04,10.0,Calm,Calm,-,N/A,,Clear,0,2013-02-25 06:53:00
2:53 AM,28.0,21.9,78,30.04,10.0,Calm,Calm,-,N/A,,Clear,0,2013-02-25 07:53:00
3:53 AM,26.1,21.9,84,30.03,10.0,Calm,Calm,-,N/A,,Clear,0,2013-02-25 08:53:00
4:53 AM,28.0,21.9,78,30.03,10.0,Calm,Calm,-,N/A,,Clear,0,2013-02-25 09:53:00
5:53 AM,28.0,23.0,81,30.04,10.0,Calm,Calm,-,N/A,,Clear,0,2013-02-25 10:53:00
6:53 AM,28.9,23.0,78,30.04,10.0,Calm,Calm,-,N/A,,Mostly Cloudy,0,2013-02-25 11:53:00
7:53 AM,30.9,23.0,72,30.06,10.0,Calm,Calm,-,N/A,,Mostly Cloudy,0,2013-02-25 12:53:00
8:53 AM,32.0,25.0,75,30.06,10.0,Calm,Calm,-,N/A,,Mostly Cloudy,0,2013-02-25 13:53:00
9:53 AM,36.0,26.1,67,30.06,10.0,East,4.6,-,N/A,,Mostly Cloudy,100,2013-02-25 14:53:00
10:53 AM,39.9,26.1,58,30.06,10.0,East,4.6,-,N/A,,Mostly Cloudy,90,2013-02-25 15:53:00
11:53 AM,43.0,26.1,51,30.04,10.0,East,6.9,-,N/A,,Overcast,80,2013-02-25 16:53:00
12:53 PM,46.0,27.0,47,30.03,10.0,Variable,3.5,-,N/A,,Mostly Cloudy,0,2013-02-25 17:53:00
1:53 PM,48.9,26.1,41,29.99,10.0,ENE,5.8,-,N/A,,Mostly Cloudy,60,2013-02-25 18:53:00
2:53 PM,53.1,26.1,35,29.97,10.0,ENE,4.6,-,N/A,,Scattered Clouds,60,2013-02-25 19:53:00
3:53 PM,55.0,27.0,34,29.96,10.0,Variable,3.5,-,N/A,,Partly Cloudy,0,2013-02-25 20:53:00
4:53 PM,55.0,28.0,35,29.94,10.0,SE,4.6,-,N/A,,Partly Cloudy,140,2013-02-25 21:53:00
5:53 PM,53.1,28.0,38,29.92,10.0,East,5.8,-,N/A,,Partly Cloudy,90,2013-02-25 22:53:00
6:53 PM,48.0,28.0,46,29.91,10.0,East,3.5,-,N/A,,Partly Cloudy,80,2013-02-25 23:53:00
7:53 PM,46.9,28.9,50,29.91,10.0,East,5.8,-,N/A,,Partly Cloudy,80,2013-02-26 00:53:00
8:53 PM,43.0,28.9,58,29.93,10.0,Calm,Calm,-,N/A,,Partly Cloudy,0,2013-02-26 01:53:00
9:53 PM,42.1,28.9,60,29.94,10.0,NNE,3.5,-,N/A,,Scattered Clouds,30,2013-02-26 02:53:00
10:53 PM,44.1,30.0,58,29.90,10.0,East,6.9,-,N/A,,Overcast,80,2013-02-26 03:53:00
11:53 PM,45.0,28.9,53,29.91,10.0,East,11.5,19.6,N/A,,Overcast,100,2013-02-26 04:53:00